Simultaneous Nadir Overpasses (SNOs) Predictions

Prediction of SNOs between GOES-15 and METOP-C Satellite Orbit:

Table of predicted SNOs for the next 14.0 days since TLE Epoch: 2/4/2023
Index Date Time (GOES-15) GOES-15 Lat,Lon METOP-C Lat,Lon Distance(km) Time Diff (sec)
1 02/04/2023 18:08:33 -0.02,-128.25 0.34,-129.77 174.02 80
2 02/05/2023 17:50:35 -0.01,-128.25 -0.79,-124.78 394.79 80
3 02/07/2023 06:06:57 0.02,-128.29 -0.24,-129.39 125.15 80
4 02/08/2023 05:48:59 0.01,-128.29 0.90,-124.40 443.52 80
5 02/09/2023 18:05:10 -0.02,-128.23 0.13,-128.96 81.98 80
6 02/10/2023 17:47:11 -0.01,-128.23 -0.95,-123.96 486.46 80
7 02/12/2023 06:03:33 0.02,-128.26 -0.06,-128.56 34.32 80
8 02/14/2023 18:04:26 -0.03,-128.19 -0.06,-128.13 6.78 80
9 02/17/2023 06:02:49 0.03,-128.19 0.15,-127.74 51.47 80
